User: anonymous   Login
Location: Prairie State College
(41.5244°N, 87.6382°W)
Time: 06:03:32
(UTC-06:00)
Language:

ARGOS Delta rocket - Orbit

View from above orbital plane
View from above orbital plane
View from above satellite
View from above satellite

Ground track
Ground track

The orbit data is extracted from the following two-line orbital elements,

1 25637U 99008D   18054.56433012 +.00000030 +00000-0 +15234-4 0  9993
2 25637 096.4521 260.4686 0141996 200.6856 183.4047 14.46561418001672
Epoch (UTC): 23 February 2018 13:32:38
Eccentricity: 0.0141996
inclination: 96.4521°
perigee height: 636 km
apogee height: 838 km
right ascension of ascending node: 260.4686°
argument of perigee: 200.6856°
revolutions per day: 14.46561418
mean anomaly at epoch: 183.4047°
orbit number at epoch: 167

The dashed part of the orbit path shows where the satellite is in the earth's shadow,  

DLR